| time (UTC) | temp C | wind direction | speed KPH | gust KPH | rain 1hr cm | rain 24hr cm | rain mn cm | humidity % | barometer mb |
| 20260505153305 | 2 | 350 | 0.0 | 4.8 | 0.03 | 0.74 | 0.51 | 92 | 1029.2 |
| 20260505151804 | 2 | 0 | 0.0 | 3.2 | 0.05 | 0.74 | 0.51 | 92 | 1029.1 |
| 20260505151305 | 2 | 12 | 0.0 | 3.2 | 0.03 | 0.71 | 0.48 | 92 | 1029.0 |
| 20260505150805 | 2 | 12 | 0.0 | 3.2 | 0.03 | 0.71 | 0.48 | 92 | 1028.9 |
| 20260505150307 | 2 | 2 | 0.0 | 3.2 | 0.05 | 0.71 | 0.48 | 92 | 1028.9 |
| 20260505130306 | 1 | 19 | 0.0 | 4.8 | 0.05 | 0.61 | 0.38 | 90 | 1028.2 |
| 20260505124805 | 1 | 19 | 0.0 | 4.8 | 0.10 | 0.61 | 0.38 | 89 | 1027.8 |
| 20260505124304 | 1 | 5 | 0.0 | 3.2 | 0.10 | 0.61 | 0.38 | 89 | 1027.7 |
| 20260505123805 | 1 | 0 | 0.0 | 4.8 | 0.10 | 0.58 | 0.36 | 89 | 1027.6 |
| 20260505123305 | 2 | 5 | 1.6 | 4.8 | 0.10 | 0.58 | 0.36 | 89 | 1027.5 |
| 20260505121804 | 2 | 0 | 1.6 | 8.0 | 0.15 | 0.58 | 0.36 | 89 | 1027.5 |
| 20260505121304 | 2 | 5 | 3.2 | 4.8 | 0.13 | 0.56 | 0.33 | 89 | 1027.5 |
| 20260505120805 | 2 | 355 | 1.6 | 8.0 | 0.15 | 0.56 | 0.33 | 89 | 1027.4 |
| 20260505114804 | 2 | 12 | 3.2 | 9.7 | 0.10 | 0.51 | 0.28 | 88 | 1027.1 |
| 20260505114304 | 2 | 12 | 3.2 | 9.7 | 0.10 | 0.51 | 0.28 | 88 | 1027.2 |
| 20260505113805 | 3 | 10 | 1.6 | 14.5 | 0.08 | 0.48 | 0.25 | 88 | 1027.2 |
| 20260505113304 | 3 | 0 | 3.2 | 14.5 | 0.08 | 0.48 | 0.25 | 88 | 1027.0 |
| 20260505111805 | 3 | 10 | 3.2 | 9.7 | 0.05 | 0.43 | 0.20 | 88 | 1026.6 |
| 20260505110804 | 3 | 1 | 4.8 | 16.1 | 0.05 | 0.41 | 0.18 | 88 | 1026.5 |
| 20260505100804 | 5 | 21 | 3.2 | 16.1 | 0.10 | 0.36 | 0.13 | 89 | 1025.5 |
| 20260505094305 | 5 | 3 | 8.0 | 14.5 | 0.05 | 0.30 | 0.08 | 88 | 1025.1 |
| 20260505093304 | 6 | 9 | 4.8 | 12.9 | 0.00 | 0.25 | 0.03 | 88 | 1025.0 |
| 20260505091805 | 6 | 8 | 3.2 | 12.9 | 0.00 | 0.25 | 0.03 | 88 | 1024.9 |
| 20260505091305 | 6 | 11 | 4.8 | 16.1 | 0.00 | 0.25 | 0.03 | 88 | 1024.8 |
| 20260505090805 | 6 | 359 | 4.8 | 16.1 | 0.00 | 0.25 | 0.03 | 88 | 1024.6 |
| 20260505084805 | 6 | 1 | 3.2 | 9.7 | 0.03 | 0.25 | 0.03 | 87 | 1024.6 |
| 20260505083804 | 6 | 352 | 3.2 | 12.9 | 0.03 | 0.25 | 0.03 | 86 | 1024.5 |
| 20260505083305 | 6 | 5 | 3.2 | 12.9 | 0.03 | 0.25 | 0.03 | 86 | 1024.6 |
| 20260505081805 | 7 | 3 | 8.0 | 19.3 | 0.03 | 0.25 | 0.03 | 84 | 1024.7 |
| 20260505080805 | 7 | 6 | 4.8 | 19.3 | 0.03 | 0.25 | 0.03 | 83 | 1024.7 |
| 20260505080307 | 8 | 20 | 4.8 | 19.3 | 0.03 | 0.25 | 0.03 | 83 | 1024.6 |
| 20260505074804 | 9 | 21 | 6.4 | 16.1 | 0.00 | 0.23 | 0.00 | 86 | 1024.3 |
| 20260505074305 | 9 | 20 | 0.0 | 4.8 | 0.00 | 0.23 | 0.00 | 86 | 1024.4 |
| 20260505073304 | 9 | 207 | 0.0 | 0.0 | 0.00 | 0.23 | 0.00 | 86 | 1024.3 |
| 20260505071805 | 9 | 207 | 0.0 | 0.0 | 0.00 | 0.23 | 0.00 | 85 | 1024.1 |
| 20260505071304 | 9 | 207 | 0.0 | 0.0 | 0.00 | 0.23 | 0.00 | 85 | 1024.0 |
| 20260505070805 | 9 | 207 | 0.0 | 0.0 | 0.00 | 0.23 | 0.00 | 85 | 1024.0 |
| 20260505070306 | 9 | 207 | 0.0 | 0.0 | 0.00 | 0.23 | 0.00 | 85 | 1023.8 |
| 20260505064805 | 8 | 207 | 0.0 | 0.0 | 0.00 | 0.23 | 0.00 | 85 | 1023.7 |
| 20260505064305 | 8 | 207 | 0.0 | 0.0 | 0.00 | 0.23 | 0.00 | 85 | 1023.7 |
| 20260505063804 | 8 | 207 | 0.0 | 3.2 | 0.00 | 0.23 | 0.00 | 85 | 1023.7 |
| 20260505063305 | 8 | 207 | 0.0 | 3.2 | 0.00 | 0.23 | 0.00 | 85 | 1023.8 |
| 20260505061304 | 8 | 207 | 0.0 | 3.2 | 0.00 | 0.23 | 0.00 | 86 | 1023.8 |
| 20260505060306 | 8 | 207 | 0.0 | 3.2 | 0.00 | 0.23 | 0.00 | 86 | 1023.8 |
| 20260505054805 | 8 | 207 | 0.0 | 0.0 | 0.00 | 0.23 | 0.23 | 85 | 1024.0 |
| 20260505054305 | 8 | 207 | 0.0 | 0.0 | 0.00 | 0.23 | 0.23 | 85 | 1023.8 |
| 20260505053805 | 8 | 207 | 0.0 | 3.2 | 0.00 | 0.23 | 0.23 | 84 | 1023.6 |
| 20260505053305 | 8 | 207 | 0.0 | 3.2 | 0.00 | 0.23 | 0.23 | 84 | 1023.5 |
| 20260505051805 | 8 | 207 | 0.0 | 1.6 | 0.00 | 0.23 | 0.23 | 84 | 1023.4 |
| 20260505050804 | 8 | 207 | 0.0 | 3.2 | 0.00 | 0.23 | 0.23 | 83 | 1023.3 |
| 20260505050307 | 8 | 207 | 0.0 | 3.2 | 0.00 | 0.23 | 0.23 | 83 | 1023.2 |
| 20260505041305 | 9 | 257 | 1.6 | 4.8 | 0.10 | 0.23 | 0.23 | 84 | 1023.8 |
| 20260505040805 | 9 | 243 | 1.6 | 4.8 | 0.13 | 0.23 | 0.23 | 84 | 1023.7 |
| 20260505040305 | 9 | 246 | 0.0 | 1.6 | 0.15 | 0.23 | 0.23 | 84 | 1023.6 |
| 20260505034305 | 10 | 247 | 0.0 | 3.2 | 0.20 | 0.20 | 0.20 | 83 | 1023.5 |
| 20260505033804 | 10 | 246 | 0.0 | 3.2 | 0.18 | 0.18 | 0.18 | 83 | 1023.6 |
| 20260505033305 | 10 | 271 | 0.0 | 4.8 | 0.15 | 0.15 | 0.15 | 83 | 1023.7 |
| 20260505031805 | 10 | 0 | 0.0 | 4.8 | 0.13 | 0.13 | 0.13 | 82 | 1023.3 |
| 20260505031304 | 10 | 319 | 1.6 | 4.8 | 0.13 | 0.13 | 0.13 | 81 | 1023.2 |
| 20260505030804 | 10 | 294 | 1.6 | 4.8 | 0.10 | 0.10 | 0.10 | 80 | 1023.1 |
| 20260505030307 | 10 | 19 | 1.6 | 4.8 | 0.08 | 0.08 | 0.08 | 79 | 1023.0 |
| 20260505024304 | 11 | 326 | 0.0 | 3.2 | 0.00 | 0.00 | 0.00 | 74 | 1022.5 |
| 20260505023805 | 11 | 325 | 1.6 | 3.2 | 0.00 | 0.00 | 0.00 | 73 | 1022.4 |
| 20260505023304 | 11 | 11 | 0.0 | 4.8 | 0.00 | 0.00 | 0.00 | 73 | 1022.3 |
| 20260505021805 | 11 | 2 | 3.2 | 4.8 | 0.00 | 0.00 | 0.00 | 71 | 1022.1 |
| 20260505021304 | 11 | 17 | 1.6 | 8.0 | 0.00 | 0.00 | 0.00 | 70 | 1022.0 |
| 20260505020804 | 12 | 6 | 3.2 | 8.0 | 0.00 | 0.00 | 0.00 | 69 | 1022.0 |
| 20260505020306 | 12 | 0 | 1.6 | 8.0 | 0.00 | 0.00 | 0.00 | 68 | 1022.2 |
| 20260505014804 | 12 | 5 | 4.8 | 12.9 | 0.00 | 0.00 | 0.00 | 66 | 1022.2 |
| 20260505013805 | 13 | 10 | 4.8 | 12.9 | 0.00 | 0.00 | 0.00 | 61 | 1021.9 |
| 20260505013304 | 14 | 1 | 4.8 | 12.9 | 0.00 | 0.00 | 0.00 | 59 | 1021.9 |
| 20260505011804 | 15 | 342 | 1.6 | 3.2 | 0.00 | 0.00 | 0.00 | 50 | 1021.7 |
| 20260505011304 | 15 | 342 | 1.6 | 3.2 | 0.00 | 0.00 | 0.00 | 49 | 1021.5 |
| 20260505004805 | 15 | 284 | 0.0 | 8.0 | 0.00 | 0.00 | 0.00 | 48 | 1021.2 |
| 20260505003804 | 16 | 355 | 3.2 | 4.8 | 0.00 | 0.00 | 0.00 | 47 | 1021.1 |
| 20260505003305 | 16 | 7 | 1.6 | 4.8 | 0.00 | 0.00 | 0.00 | 47 | 1021.0 |
| 20260505001304 | 16 | 356 | 3.2 | 16.1 | 0.00 | 0.00 | 0.00 | 44 | 1020.8 |
| 20260505000805 | 16 | 10 | 3.2 | 16.1 | 0.00 | 0.00 | 0.00 | 42 | 1020.8 |
| 20260505000307 | 16 | 10 | 1.6 | 8.0 | 0.00 | 0.00 | 0.00 | 42 | 1020.8 |
| 20260504234805 | 17 | 16 | 4.8 | 12.9 | 0.00 | 0.00 | 0.00 | 39 | 1020.8 |
| 20260504234305 | 17 | 2 | 3.2 | 8.0 | 0.00 | 0.00 | 0.00 | 38 | 1020.7 |
| 20260504233804 | 17 | 16 | 4.8 | 9.7 | 0.00 | 0.00 | 0.00 | 38 | 1020.5 |
| 20260504233305 | 17 | 0 | 3.2 | 12.9 | 0.00 | 0.00 | 0.00 | 39 | 1020.3 |
| 20260504231805 | 17 | 355 | 3.2 | 14.5 | 0.00 | 0.00 | 0.00 | 39 | 1020.4 |
| 20260504231304 | 17 | 350 | 3.2 | 14.5 | 0.00 | 0.00 | 0.00 | 39 | 1020.5 |
| 20260504230804 | 17 | 12 | 3.2 | 14.5 | 0.00 | 0.00 | 0.00 | 38 | 1020.4 |
| 20260504224805 | 17 | 304 | 4.8 | 16.1 | 0.00 | 0.00 | 0.00 | 38 | 1020.6 |
| 20260504224305 | 17 | 250 | 3.2 | 9.7 | 0.00 | 0.00 | 0.00 | 38 | 1020.7 |
| 20260504223804 | 17 | 272 | 1.6 | 4.8 | 0.00 | 0.00 | 0.00 | 37 | 1020.7 |
| 20260504223305 | 17 | 2 | 1.6 | 4.8 | 0.00 | 0.00 | 0.00 | 37 | 1020.6 |
| 20260504221804 | 17 | 16 | 3.2 | 12.9 | 0.00 | 0.00 | 0.00 | 36 | 1020.1 |
| 20260504221304 | 17 | 7 | 3.2 | 19.3 | 0.00 | 0.00 | 0.00 | 36 | 1019.9 |
| 20260504220804 | 17 | 15 | 6.4 | 19.3 | 0.00 | 0.00 | 0.00 | 36 | 1019.7 |
| 20260504220307 | 18 | 6 | 4.8 | 19.3 | 0.00 | 0.00 | 0.00 | 35 | 1019.5 |
| 20260504214805 | 19 | 26 | 9.7 | 27.4 | 0.00 | 0.00 | 0.00 | 34 | 1019.3 |
| 20260504214305 | 19 | 29 | 6.4 | 27.4 | 0.00 | 0.00 | 0.00 | 33 | 1019.2 |
| 20260504213804 | 19 | 1 | 12.9 | 27.4 | 0.00 | 0.00 | 0.00 | 33 | 1019.0 |
| 20260504213305 | 20 | 14 | 9.7 | 20.9 | 0.00 | 0.00 | 0.00 | 32 | 1019.0 |
| 20260504211304 | 20 | 19 | 9.7 | 32.2 | 0.00 | 0.00 | 0.00 | 31 | 1019.4 |
| 20260504210804 | 20 | 18 | 9.7 | 19.3 | 0.00 | 0.00 | 0.00 | 29 | 1019.5 |
| 20260504210307 | 20 | 198 | 0.0 | 4.8 | 0.00 | 0.00 | 0.00 | 29 | 1019.2 |
| 20260504204805 | 20 | 192 | 1.6 | 4.8 | 0.00 | 0.00 | 0.00 | 32 | 1019.1 |
| 20260504204304 | 20 | 207 | 1.6 | 11.3 | 0.00 | 0.00 | 0.00 | 33 | 1019.2 |
| 20260504203805 | 19 | 178 | 1.6 | 11.3 | 0.00 | 0.00 | 0.00 | 33 | 1019.1 |
| 20260504201804 | 18 | 152 | 4.8 | 11.3 | 0.00 | 0.00 | 0.00 | 36 | 1019.1 |
| 20260504201305 | 17 | 192 | 0.0 | 4.8 | 0.00 | 0.00 | 0.00 | 40 | 1019.0 |
| 20260504200805 | 17 | 164 | 3.2 | 11.3 | 0.00 | 0.00 | 0.00 | 39 | 1019.0 |
| 20260504200307 | 18 | 170 | 1.6 | 12.9 | 0.00 | 0.00 | 0.00 | 42 | 1019.1 |
| 20260504194804 | 19 | 187 | 6.4 | 22.5 | 0.00 | 0.00 | 0.00 | 26 | 1018.8 |
| 20260504194305 | 20 | 173 | 9.7 | 22.5 | 0.00 | 0.00 | 0.00 | 27 | 1018.7 |
| 20260504193804 | 22 | 213 | 4.8 | 20.9 | 0.00 | 0.00 | 0.00 | 26 | 1018.8 |
| 20260504193304 | 23 | 215 | 6.4 | 19.3 | 0.00 | 0.00 | 0.00 | 23 | 1019.1 |
| 20260504191305 | 26 | 348 | 3.2 | 14.5 | 0.00 | 0.00 | 0.00 | 18 | 1018.3 |
| 20260504190804 | 27 | 330 | 3.2 | 14.5 | 0.00 | 0.00 | 0.00 | 17 | 1018.3 |
| 20260504190307 | 27 | 2 | 4.8 | 14.5 | 0.00 | 0.00 | 0.00 | 17 | 1018.3 |
| 20260504183805 | 27 | 34 | 6.4 | 16.1 | 0.00 | 0.00 | 0.00 | 18 | 1018.5 |
| 20260504183304 | 26 | 354 | 4.8 | 16.1 | 0.00 | 0.00 | 0.00 | 19 | 1018.6 |
| 20260504181304 | 25 | 356 | 8.0 | 19.3 | 0.00 | 0.00 | 0.00 | 21 | 1018.9 |
| 20260504180805 | 24 | 349 | 4.8 | 16.1 | 0.00 | 0.00 | 0.00 | 21 | 1019.0 |
| 20260504180307 | 23 | 2 | 4.8 | 19.3 | 0.00 | 0.00 | 0.00 | 22 | 1019.1 |
| 20260504174804 | 22 | 256 | 4.8 | 12.9 | 0.00 | 0.00 | 0.00 | 24 | 1019.3 |
| 20260504174304 | 22 | 14 | 3.2 | 19.3 | 0.00 | 0.00 | 0.00 | 24 | 1019.5 |
| 20260504173804 | 22 | 317 | 4.8 | 19.3 | 0.00 | 0.00 | 0.00 | 24 | 1019.6 |
| 20260504173305 | 22 | 352 | 4.8 | 19.3 | 0.00 | 0.00 | 0.00 | 25 | 1019.6 |
| 20260504171305 | 22 | 9 | 4.8 | 20.9 | 0.00 | 0.00 | 0.00 | 25 | 1019.8 |
| 20260504170805 | 22 | 10 | 4.8 | 16.1 | 0.00 | 0.00 | 0.00 | 25 | 1019.9 |
| 20260504170307 | 22 | 285 | 4.8 | 16.1 | 0.00 | 0.00 | 0.00 | 26 | 1019.8 |
| 20260504160307 | 18 | 278 | 3.2 | 9.7 | 0.00 | 0.00 | 0.00 | 29 | 1020.6 |